User: anonymous   Login
Location: Vancouver
(49.2500°N, 123.1330°W)
Time: 04:01:47
(UTC-08:00)
Language:

Cosmos 1939 Rocket - Orbit

View from above orbital plane
View from above orbital plane
View from above satellite
View from above satellite

Ground track
Ground track

The orbit data is extracted from the following two-line orbital elements,

1 19046U 88032B   14354.48136408  .00005116  00000-0  40711-3 0   790
2 19046 097.6194 045.5586 0038937 182.4957 177.6078 15.00239866436129
Epoch (UTC): 20 December 2014 11:33:09
Eccentricity: 0.0038937
inclination: 97.6194°
perigee height: 539 km
apogee height: 593 km
right ascension of ascending node: 45.5586°
argument of perigee: 182.4957°
revolutions per day: 15.00239866
mean anomaly at epoch: 177.6078°
orbit number at epoch: 43612

The dashed part of the orbit path shows where the satellite is in the earth's shadow,  

DLR